Regional Weather Roundup
Issued by NWS Cleveland, OH

Home | Current Version | Previous Version | Text Only | Print | Product List | Glossary Off
Versions: 1 2 3 4 5 6 7 8 9 10 11 12 13 14 15 16 17 18 19 20 21 22 23 24 25 26 27 28 29 30 31 32 33 34 35 36 37 38 39 40 41 42 43 44 45 46 47 48 49 50

000
ASUS41 KCLE 301102
RWRCLE
OHIO REGIONAL WEATHER ROUNDUP
NATIONAL WEATHER SERVICE CLEVELAND, OH
600 AM EST FRI JAN 30 2015

NOTE: "FAIR" INDICATES FEW OR NO CLOUDS BELOW 12,000 FEET WITH NO
SIGNIFICANT WEATHER AND/OR OBSTRUCTIONS TO VISIBILITY.

OHZ001>008-015>018-024>027-034-035-043-044-301200-
   NORTHWEST OHIO

CITY           SKY/WX    TMP DP  RH WIND       PRES   REMARKS
DEFIANCE       CLOUDY    23  10  57 N16G35    30.31R WCI  10
FINDLAY        CLOUDY    22  12  65 NW14G22   30.26R WCI   9
TOLEDO EXPRESS CLOUDY    22  12  65 NW13G22   30.27R WCI  10
TOLEDO EXEC    PTCLDY    23  11  60 NW16G25   30.28R WCI  10
LIMA           CLOUDY    23  12  62 NW16      30.26R WCI  10
$$

OHZ009>014-019>023-028>033-038-089-301200-
   NORTHEAST OHIO

CITY           SKY/WX    TMP DP  RH WIND       PRES   REMARKS
CLE-HOPKINS    LGT SNOW  21  15  78 NW23G31   30.21R BLWGSNOWWCI   5
CLE-LAKEFRONT  FLURRIES  22  16  78 NW29G35   30.19R WCI   4
CUY CO. ARPT   NOT AVBL
LORAIN-ELYRIA  LGT SNOW  22  17  81 N18       30.20R WCI   7
ASHTABULA      LGT SNOW  21  16  81 NW15G26   30.12R WCI   8
AKRON-CANTON   LGT SNOW  23  19  85 NW14      30.12R VSB 1   WCI  11
WOOSTER        LGT SNOW  21  15  78 NW14      30.16R WCI   8
MANSFIELD      CLOUDY    21  12  68 NW20G28   30.18R WCI   6
YOUNGSTOWN     LGT SNOW  22  19  89 NW15      30.09R FOG     WCI   9
$$

OHZ042-051>053-060>062-070>072-077>081-301200-
  SOUTHWEST OHIO

CITY           SKY/WX    TMP DP  RH WIND       PRES   REMARKS
CINC-COVINGTON CLOUDY    33  24  69 NW15G25   30.27R WCI  23
CINC-LUNKEN    LGT SNOW  31  27  85 N18G30    30.31R VSB 3/4 WCI  19
HAMILTON       FLURRIES  31  24  75 N17       30.30R WCI  19
DAYTON         CLOUDY    27  16  63 N21G35    30.28R WCI  13
WRIGHT-PAT AFB CLOUDY    27  18  69 NW21G32   30.28R WCI  14
DAYTON GENERAL CLOUDY    30  21  69 NW15      30.25R WCI  19
WILMINGTON     CLOUDY    29  22  75 NW15G25   30.23R WCI  18
$$

OHZ036-037-039>041-045>050-054>059-063>069-073>076-082>088-301200-
  CENTRAL AND SOUTHEAST OHIO

CITY           SKY/WX    TMP DP  RH WIND       PRES   REMARKS
COLUMBUS       CLOUDY    27  19  72 NW18G25   30.21R WCI  14
OSU AIRPORT    MOCLDY    27  16  63 NW16G30   30.21R WCI  15
BOLTON FIELD   NOT AVBL
RICKENBACK AFB NOT AVBL
NEWARK         CLOUDY    28  18  66 NW13G22   30.19R WCI  17
MARION         CLOUDY    21  13  71 N23G31    30.23R HAZE    WCI   5
LANCASTER      CLOUDY    29  22  75 NW12      30.20R WCI  19
ZANESVILLE     LGT SNOW  26  22  84 NW12      30.16R VSB 1   WCI  16
NEW PHILLY     FLURRIES  26  17  68 NW18G28   30.15R WCI  13
$$



USA.gov is the U.S. government's official web portal to all federal, state and local government web resources and services.